Home   Weather   Wood Buffalo   Past weeks

Flag for Canada Past Weather in Wood Buffalo, Alberta, Canada — Yesterday and Last 2 Weeks

Now
50 °F

Passing clouds.


Feels Like: 48 °F
Forecast: 47 / 75 °F
Wind: 6 mph from Southwest

Location: Fort Mcmurray

Current Time: Aug 21, 2017 at 2:31:38 am

Latest Report: Aug 21, 2017 at 1:00 am


Visibility: 9 mi

Pressure: 29.92 "Hg

Humidity: 71%

Dew Point: 41 °F

Location of Wood BuffaloLocation

Past Weather in Wood Buffalo — Graph

°F

Wood Buffalo Temperature Yesterday

Maximum temperature yesterday: 70 °F (at 2:00 pm)
Minimum temperature yesterday: 46 °F (at 6:00 am)
Average temperature yesterday: 60 °F

High & Low Weather Summary for the Past Weeks

 TemperatureHumidityPressure
High86 °F (Aug 12, 4:00 pm)100% (Aug 6, 6:01 am)30.26 "Hg (Aug 6, 6:01 am)
Low41 °F (Aug 8, 5:16 am)25% (Aug 13, 4:00 pm)29.63 "Hg (Aug 18, 11:09 pm)
Average62 °F67%29.90 "Hg
* Reported Aug 6 1:00 am — Aug 21 1:00 am, Wood Buffalo. Weather by CustomWeather, © 2017

Note: Actual official high and low records may vary slightly from our data, if they occured in-between our weather recording intervals... More about our weather records

Advertising

Wood Buffalo Weather History for the Previous 24 Hours

Scroll right to see more
 ConditionsComfort  
Time TempWeatherWind HumidityBarometerVisibility
1:00 am
Mon, Aug 21
50 °FPassing clouds.6 mph71%29.92 "Hg9 mi
12:00 am52 °FClear.6 mph67%29.90 "Hg9 mi
11:00 pm
Sun, Aug 20
55 °FPassing clouds.10 mph59%29.88 "Hg9 mi
10:00 pm57 °FPassing clouds.9 mph55%29.87 "Hg9 mi
9:00 pm61 °FPassing clouds.10 mph45%29.85 "Hg9 mi
8:00 pm64 °FSunny.15 mph37%29.82 "Hg9 mi
7:00 pm66 °FSunny.17 mph35%29.81 "Hg9 mi
6:00 pm64 °FScattered clouds.17 mph34%29.80 "Hg9 mi
5:35 pm64 °FBroken clouds.20 mph40%29.80 "Hg9 mi
5:08 pm61 °FLight rain. Mostly cloudy.16 mph55%29.80 "Hg9 mi
4:55 pm64 °FLight rain. Partly sunny.23 mph40%29.78 "Hg9 mi
4:31 pm64 °FOvercast.5 mph46%29.77 "Hg9 mi
4:12 pm66 °FLight rain. Mostly cloudy.15 mph40%29.77 "Hg9 mi
4:00 pm68 °FBroken clouds.14 mph30%29.76 "Hg9 mi
3:00 pm70 °FScattered clouds.21 mph27%29.75 "Hg9 mi
2:43 pm70 °FThundershowers. Scattered clouds.16 mph29%29.75 "Hg9 mi
2:00 pm70 °FScattered clouds.24 mph29%29.75 "Hg9 mi
1:00 pm68 °FSunny.18 mph33%29.76 "Hg9 mi
12:00 pm66 °FSunny.22 mph35%29.76 "Hg9 mi
11:00 am64 °FSunny.18 mph40%29.77 "Hg9 mi
10:00 am61 °FSunny.16 mph48%29.77 "Hg9 mi
9:00 am55 °FSunny.12 mph59%29.79 "Hg9 mi
8:00 am52 °FSunny.9 mph62%29.78 "Hg9 mi
7:00 am46 °FSunny.8 mph76%29.78 "Hg9 mi
6:00 am46 °FClear.8 mph76%29.78 "Hg9 mi
5:00 am48 °FClear.12 mph71%29.77 "Hg9 mi
4:00 am48 °FPassing clouds.9 mph71%29.76 "Hg9 mi
3:00 am50 °FPassing clouds.10 mph71%29.76 "Hg9 mi
2:00 am50 °FPassing clouds.6 mph76%29.77 "Hg9 mi
Weather by CustomWeather, © 2017

See weather overviewHow to use our weather pages